Main page
METAR-TAF:

METAR-TAF

Airports :

Pruniers

Romorantin, France

latitude: 47-19N, longitude: 001-41E, elevation: 85 m

Current weather observation

The report was made 34 minutes ago, at 22:00 UTC
Calm wind
Temperature 6°C
Humidity 93%
Pressure 1024 hPa
Visibility: 1700 m
mist

METAR: LFYR 212200Z AUTO 00000KT 1700 BR NSC 06/05 Q1024

Time: 00:34 (22:34 UTC)


TAF: missing

Weather observations and forecasts of more than 4000 airports (METAR and TAF reports).

The available stations are represented by yellow and red dots on the map.

Hover mouse over dot to see the name of the station.

Then click to see weather observations and forecasts.

To change the map : click on the green buttons with a black cross to zoom in, on the green button with a dash to zoom out, or on the green arrows for adjacent maps.


METAR-TAF: